Douglas, WY

6:35 AM MDT on June 22, 2017 (GMT -0600)
Converse County

Weather History for KDGW - August, 2014

Change the Weather History Date:

Thursday, August 14, 2014

  Actual Average Record
Temperature  
Mean Temperature 70 °F 71 °F  
Max Temperature 81 °F 88 °F 98 °F (2015)
Min Temperature 59 °F 54 °F 43 °F (2002)
Degree Days  
Heating Degree Days 0 1  
Month to date heating degree days 0 5  
Since 1 June heating degree days 157 130  
Since 1 July heating degree days 14 20  
Cooling Degree Days 5 6  
Month to date cooling degree days 78 98  
Year to date cooling degree days 316 380  
Since 1 June cooling degree days 311 374  
Growing Degree Days 20 (Base 50)    
Moisture  
Dew Point 57 °F    
Average Humidity 63    
Maximum Humidity 84    
Minimum Humidity 42    
Precipitation  
Precipitation 0.02 in 0.04 in 0.17 in (2008)
Month to date precipitation 0.73 0.53  
Year to date precipitation 9.71 9.44  
Sea Level Pressure  
Sea Level Pressure 29.90 in    
Wind  
Wind Speed 7 mph (WNW)    
Max Wind Speed 16 mph    
Max Gust Speed 21 mph    
Visibility 10 miles    
Events Rain , Thunderstorm    
T = Trace of Precipitation, MM = Missing Value Source: NWS Daily Summary

Daily Weather History Graph

Daily Weather History Graph

Search for Another Location

Airport or City:

Trip Planner

Search our weather history database for the weather conditions in past years. The results will help you decide how hot, cold, wet, or windy it might be!

Date:

Astronomy

Aug. 14, 2014 Rise Set
Actual Time 6:06 AM MDT 8:04 PM MDT
Civil Twilight 5:36 AM MDT 8:35 PM MDT
Nautical Twilight 4:58 AM MDT 9:12 PM MDT
Astronomical Twilight 4:17 AM MDT 9:53 PM MDT
Moon 10:21 PM MDT (8/14) 10:54 AM MDT (8/14)
Length of Visible Light 14h 59m
Length of Day
13h 57m
Waning Gibbous, 78% of the Moon is Illuminated
Aug 14
Waning Gibbous
Aug 17
Last Quarter
Aug 25
New
Sep 2
First Quarter
Sep 8
Full

Hourly Weather History & Observations

Time (MDT) Temp. Heat Index Dew Point Humidity Pressure Visibility Wind Dir Wind Speed Gust Speed Precip Events Conditions
12:53 AM 68.0 °F - 59.0 °F 73% 29.88 in 10.0 mi East 3.5 mph - N/A   Scattered Clouds
1:53 AM 66.9 °F - 57.9 °F 73% 29.87 in 10.0 mi Calm Calm - N/A   Overcast
2:53 AM 66.0 °F - 57.0 °F 73% 29.88 in 10.0 mi SSW 4.6 mph - N/A   Scattered Clouds
3:53 AM 63.0 °F - 57.0 °F 81% 29.88 in 10.0 mi South 5.8 mph - N/A   Clear
4:53 AM 62.1 °F - 55.0 °F 78% 29.88 in 10.0 mi Calm Calm - N/A   Clear
5:53 AM 60.1 °F - 55.0 °F 83% 29.89 in 10.0 mi North 3.5 mph - N/A   Clear
6:53 AM 61.0 °F - 55.9 °F 83% 29.91 in 10.0 mi Calm Calm - N/A   Clear
7:53 AM 69.1 °F - 55.9 °F 63% 29.91 in 10.0 mi NNW 3.5 mph - N/A   Scattered Clouds
8:53 AM 72.0 °F - 55.9 °F 57% 29.92 in 10.0 mi NW 8.1 mph - N/A   Mostly Cloudy
9:53 AM 73.9 °F - 54.0 °F 50% 29.91 in 10.0 mi WSW 12.7 mph - N/A   Mostly Cloudy
10:53 AM 73.9 °F - 57.0 °F 55% 29.93 in 10.0 mi WNW 13.8 mph - N/A   Overcast
11:53 AM 75.0 °F - 57.0 °F 53% 29.91 in 10.0 mi WNW 9.2 mph - N/A   Overcast
12:53 PM 75.0 °F - 57.9 °F 55% 29.90 in 10.0 mi West 11.5 mph - 0.00 in   Overcast
1:53 PM 78.1 °F - 57.9 °F 50% 29.88 in 10.0 mi NW 8.1 mph - N/A   Mostly Cloudy
2:53 PM 81.0 °F 80.8 °F 55.9 °F 42% 29.86 in 10.0 mi NW 11.5 mph - N/A   Mostly Cloudy
3:05 PM 78.1 °F - 55.9 °F 46% 30.05 in 10.0 mi WNW 9.2 mph - N/A Thunderstorm Mostly Cloudy
3:20 PM 75.9 °F - 57.9 °F 54% 30.06 in 10.0 mi West 8.1 mph - 0.00 in Rain Light Rain
3:53 PM 77.0 °F - 61.0 °F 58% 29.88 in 10.0 mi West 3.5 mph - 0.01 in   Overcast
4:53 PM 78.1 °F - 59.0 °F 52% 29.87 in 10.0 mi West 6.9 mph - 0.01 in   Partly Cloudy
5:53 PM 81.0 °F 81.0 °F 57.0 °F 44% 29.86 in 10.0 mi WNW 11.5 mph - N/A   Partly Cloudy
6:53 PM 75.9 °F - 55.0 °F 48% 29.86 in 10.0 mi NW 9.2 mph - N/A   Clear
7:53 PM 72.0 °F - 57.0 °F 59% 29.86 in 10.0 mi NW 5.8 mph - N/A   Clear
8:53 PM 71.1 °F - 55.0 °F 57% 29.90 in 10.0 mi North 11.5 mph - N/A   Clear
9:53 PM 68.0 °F - 55.0 °F 63% 29.91 in 10.0 mi North 10.4 mph - N/A   Clear
10:53 PM 64.9 °F - 55.0 °F 70% 29.92 in 10.0 mi Variable 5.8 mph - N/A   Clear
11:53 PM 61.0 °F - 55.0 °F 81% 29.94 in 10.0 mi West 4.6 mph - N/A   Clear